This demonstration page uses our WeatherBlox Daily Observations layout. Learn more.

Left ArrowRight Arrow

40.92945, -100.16068

Hourly Observations for February 19, 2022

Temp ( °F °C ) Dew Point ( °F °C ) Humidity (%) Winds ( mph kmh ) Pressure ( in mb ) Visibility ( mi km ) Precip ( " mm )
12:15 am 00:15 Partly Cloudy 26 -3.5 19 -7 77 77 NNE 9 15 30.45 1031 10 16 0.00 0.00
12:35 am 00:35 Clear 24 -4.5 18 -7.7 79 79 NE 6 9 30.47 1032 10 16 0.00 0.00
12:55 am 00:55 Partly Cloudy 23 -5.1 17 -8.1 80 80 NE 5 7 30.48 1032 10 16 0.00 0.00
1:15 am 01:15 Mostly Cloudy 24 -4.4 18 -7.7 78 78 N 7 11 30.47 1032 10 16 0.00 0.00
1:35 am 01:35 Cloudy 24 -4.5 18 -7.8 78 78 N 5 7 30.48 1032 10 16 0.00 0.00
1:55 am 01:55 Cloudy 24 -4.3 18 -7.6 78 78 Calm 30.47 1032 10 16 0.00 0.00
2:15 am 02:15 Cloudy 25 -4 19 -7.5 77 77 E 3 6 30.48 1032 10 16 0.00 0.00
2:35 am 02:35 Cloudy 26 -3.6 19 -7.2 76 76 Calm 30.46 1032 10 16 0.00 0.00
2:55 am 02:55 Cloudy 26 -3.6 19 -7.5 75 75 ENE 3 6 30.47 1032 10 16 0.00 0.00
3:15 am 03:15 Cloudy 26 -3.6 18 -7.6 74 74 Calm 30.47 1032 10 16 0.00 0.00
3:35 am 03:35 Cloudy 25 -3.7 18 -8 72 72 Calm 30.47 1032 10 16 0.00 0.00
3:55 am 03:55 Cloudy 25 -3.8 17 -8.4 71 71 E 5 7 30.46 1031 10 16 0.00 0.00
4:15 am 04:15 Cloudy 25 -4 16 -9 69 69 ESE 3 6 30.47 1032 10 16 0.00 0.00
4:35 am 04:35 Cloudy 25 -4 15 -9.3 67 67 E 3 6 30.48 1032 10 16 0.00 0.00
4:55 am 04:55 Cloudy 25 -4.1 15 -9.5 66 66 SE 5 7 30.48 1032 10 16 0.00 0.00
5:15 am 05:15 Cloudy 24 -4.2 15 -9.7 66 66 SSE 6 9 30.49 1033 10 16 0.00 0.00
5:35 am 05:35 Cloudy 23 -4.8 14 -10 67 67 SE 5 7 30.50 1033 10 16 0.00 0.00
5:55 am 05:55 Partly Cloudy 21 -6 13 -10.8 69 69 SE 5 7 30.51 1033 10 16 0.00 0.00
6:15 am 06:15 Mostly Cloudy 20 -6.6 13 -10.4 75 75 S 5 7 30.53 1034 10 16 0.00 0.00
6:35 am 06:35 Cloudy 21 -6.1 14 -9.9 75 75 SSE 5 7 30.51 1033 10 16 0.00 0.00
6:55 am 06:55 Cloudy 21 -6 14 -10.1 73 73 SSE 6 9 30.51 1033 10 16 0.00 0.00
7:15 am 07:15 Cloudy 22 -5.5 14 -10 71 71 SE 7 11 30.49 1033 10 16 0.00 0.00
7:35 am 07:35 Mostly Cloudy 21 -6.1 13 -10.4 72 72 SSE 6 9 30.49 1033 10 16 0.00 0.00
7:55 am 07:55 Partly Cloudy 20 -6.8 12 -11 72 72 S 8 13 30.51 1033 10 16 0.00 0.00
8:15 am 08:15 Partly Cloudy 22 -5.6 12 -10.9 67 67 S 8 13 30.50 1033 10 16 0.00 0.00
8:35 am 08:35 Mostly Cloudy 24 -4.6 8 -13.4 51 51 S 9 15 30.49 1032 10 16 0.00 0.00
8:55 am 08:55 Partly Cloudy 26 -3.6 9 -12.6 50 50 S 13 20 30.46 1032 10 16 0.00 0.00
9:15 am 09:15 Partly Cloudy 27 -3 13 -10.8 55 55 S 15 24 30.46 1031 10 16 0.00 0.00
9:35 am 09:35 Partly Cloudy 28 -2.5 14 -9.8 58 58 S 17 28 30.44 1031 10 16 0.00 0.00
9:55 am 09:55 Partly Cloudy 28 -2.1 14 -9.9 56 56 S 16 26 30.43 1030 10 16 0.00 0.00
10:15 am 10:15 Sunny 29 -1.5 14 -10 53 53 S 15 24 30.42 1030 10 16 0.00 0.00
10:35 am 10:35 Sunny 31 -0.8 15 -9.2 53 53 S 16 26 30.41 1030 10 16 0.00 0.00
10:55 am 10:55 Sunny 32 -0.2 15 -9.3 51 51 S 15 24 30.39 1029 10 16 0.00 0.00
11:15 am 11:15 Sunny 33 0.3 16 -8.9 50 50 S 14 22 30.36 1028 10 16 0.00 0.00
11:35 am 11:35 Sunny 35 1.6 17 -8.3 48 48 S 17 28 30.34 1027 10 16 0.00 0.00
11:55 am 11:55 Sunny 37 2.6 16 -8.8 43 43 S 17 28 30.31 1026 10 16 0.00 0.00
12:15 pm 12:15 Sunny 38 3.2 16 -8.9 41 41 S 21 33 30.30 1026 10 16 0.00 0.00
12:35 pm 12:35 Sunny 39 3.7 17 -8.6 41 41 SSW 22 35 30.26 1025 10 16 0.00 0.00
12:55 pm 12:55 Sunny 40 4.6 17 -8.5 38 38 S 23 37 30.24 1024 10 16 0.00 0.00
1:15 pm 13:15 Sunny 42 5.7 18 -8 37 37 SSW 20 31 30.20 1023 10 16 0.00 0.00
1:35 pm 13:35 Sunny 43 6.2 18 -7.7 37 37 SSW 23 37 30.18 1022 10 16 0.00 0.00
1:55 pm 13:55 Sunny 45 7 18 -7.6 35 35 S 23 37 30.14 1021 10 16 0.00 0.00
2:15 pm 14:15 Sunny 46 7.6 19 -7 35 35 S 23 37 30.09 1019 10 16 0.00 0.00
2:35 pm 14:35 Sunny 47 8.4 20 -6.7 34 34 SSW 28 44 30.07 1018 10 16 0.00 0.00
2:55 pm 14:55 Sunny 48 9 19 -7 32 32 S 23 37 30.05 1018 10 16 0.00 0.00
3:15 pm 15:15 Sunny 48 9 19 -7.5 31 31 S 26 43 30.03 1017 10 16 0.00 0.00
3:35 pm 15:35 Sunny 49 9.5 18 -8 29 29 S 28 44 30.01 1016 10 16 0.00 0.00
3:55 pm 15:55 Sunny 49 9.7 17 -8.5 27 27 S 26 43 29.98 1015 10 16 0.00 0.00
4:15 pm 16:15 Sunny 50 10 17 -8.2 27 27 S 22 35 29.97 1015 10 16 0.00 0.00
4:35 pm 16:35 Sunny 51 10.3 18 -7.8 27 27 S 24 39 29.95 1014 10 16 0.00 0.00
4:55 pm 16:55 Sunny 51 10.3 19 -7.5 28 28 S 26 43 29.94 1014 10 16 0.00 0.00
5:15 pm 17:15 Sunny 50 10.2 19 -7.5 28 28 S 22 35 29.92 1013 10 16 0.00 0.00
5:35 pm 17:35 Sunny 50 9.8 19 -7 30 30 S 21 33 29.90 1013 10 16 0.00 0.00
5:55 pm 17:55 Sunny 48 9.1 19 -7 32 32 S 16 26 29.90 1013 10 16 0.00 0.00
6:15 pm 18:15 Sunny 47 8.5 20 -6.7 34 34 S 13 20 29.90 1012 10 16 0.00 0.00
6:35 pm 18:35 Clear 46 8 20 -6.5 35 35 S 17 28 29.89 1012 10 16 0.00 0.00
6:55 pm 18:55 Clear 46 7.6 20 -6.6 36 36 S 14 22 29.89 1012 10 16 0.00 0.00
7:15 pm 19:15 Clear 45 7.1 20 -6.5 38 38 S 12 19 29.89 1012 10 16 0.00 0.00
7:35 pm 19:35 Clear 46 7.5 21 -6.1 38 38 S 17 28 29.87 1012 10 16 0.00 0.00
7:55 pm 19:55 Clear 45 7.2 21 -6.1 39 39 S 17 28 29.87 1011 10 16 0.00 0.00
8:15 pm 20:15 Clear 46 7.5 21 -6 38 38 S 21 33 29.85 1011 10 16 0.00 0.00
8:35 pm 20:35 Clear 45 7 22 -5.8 40 40 S 16 26 29.86 1011 10 16 0.00 0.00
8:55 pm 20:55 Clear 44 6.6 22 -5.7 41 41 S 21 33 29.85 1011 10 16 0.00 0.00
9:15 pm 21:15 Clear 44 6.5 22 -5.7 42 42 S 18 30 29.84 1011 10 16 0.00 0.00
9:35 pm 21:35 Clear 44 6.5 22 -5.3 43 43 S 22 35 29.83 1010 10 16 0.00 0.00
9:55 pm 21:55 Clear 43 6 23 -5.1 45 45 S 20 31 29.84 1010 10 16 0.00 0.00
10:15 pm 22:15 Clear 42 5.3 23 -5 48 48 S 20 31 29.84 1010 10 16 0.00 0.00
10:35 pm 22:35 Clear 41 5 23 -5 49 49 S 20 31 29.83 1010 10 16 0.00 0.00
10:55 pm 22:55 Clear 40 4.5 24 -4.5 52 52 S 20 31 29.83 1010 10 16 0.00 0.00
11:15 pm 23:15 Clear 40 4.2 24 -4.3 54 54 S 18 30 29.83 1010 10 16 0.00 0.00
11:35 pm 23:35 Clear 39 4 25 -4 56 56 S 20 31 29.82 1010 10 16 0.00 0.00
11:55 pm 23:55 Clear 38 3.6 25 -4 58 58 SSW 18 30 29.81 1010 10 16 0.00 0.00

Powered by AerisWeather